Location: Brede
(50.9167°N, 0.6000°E)
Time: 03:35:51
(UTC+00:00)

Cosmos 1025 Rocket - Pass Details

Date: 08 August 2020
Orbit: 594 x 618 km, 82.5° (Epoch: 27 September)

Event Time Altitude Azimuth Distance (km) Brightness Sun altitude
Rises 00:04:49 0° 356° (N) 2,857 7.9 -23.0°
Reaches altitude 10° 00:07:15 10° 7° (N) 1,947 6.7 -23.0°
Maximum altitude 00:11:05 31° 70° (ENE) 1,061 4.4 -23.0°
Enters shadow 00:12:08 27° 98° (E) 1,151 4.3 -23.0°
